Location: Newark
(52.3500°N, 175.9667°E)
Time: 05:21:40
(UTC+00:00)

S-56A Canister/Altair - Pass Details

Date: 28 April 2021
Orbit: 631 x 2501 km, 38.9° (Epoch: 12 May)

Event Time Altitude Azimuth Distance (km) Brightness Sun altitude
Rises 13:31:35 0° 265° (W) 4,383 11.2 -21.2°
Enters shadow 13:33:01 - 260° (W) 3,933 10.9 -21.1°
Reaches altitude 10° 13:36:18 10° 245° (WSW) 3,001 - -21.0°
Maximum altitude 13:40:00 15° 213° (SSW) 2,346 - -20.7°
Drops below altitude 10° 13:43:09 10° 179° (S) 2,451 - -20.6°
Sets 13:46:23 0° 155° (SSE) 3,165 - -20.4°
